User: anonymous   Login
Location: Balsareny
(41.8670°N, 1.8830°E)
Time: 04:12:37
(UTC+02:00)
Language:

Tiangong - Orbit

View from above orbital plane
View from above orbital plane
View from above satellite
View from above satellite

Ground track
Ground track

The orbit data is extracted from the following two-line orbital elements,

1 48274U 21035A   21209.52665311  .00008060  00000-0  90744-4 0  9991
2 48274  41.4703  30.8826 0009011 254.4811 140.1396 15.62730792 14167
Epoch (UTC): 28 July 2021 12:38:22
Eccentricity: 0.0009011
inclination: 41.4703°
perigee height: 373 km
apogee height: 386 km
right ascension of ascending node: 30.8826°
argument of perigee: 254.4811°
revolutions per day: 15.62730792
mean anomaly at epoch: 140.1396°
orbit number at epoch: 1416

The dashed part of the orbit path shows where the satellite is in the earth's shadow,  

DLR